Location: Ch�teau
(46.4274°N, 4.6012°E)
Time: 01:45:38
(UTC+00:00)

Daily predictions for brighter satellites

Satellite Brightness Start Highest point End
(mag) Time Altitude Azimuth Time Altitude Azimuth Time Altitude Azimuth
Cosmos 1464 Rocket 3.9 00:08:47 66° SSE 00:09:34 75° E 00:15:48 10° NNE
Cosmos 2333 4.2 00:04:31 10° NNW 00:10:14 69° WSW 00:10:14 69° WSW
Cosmos 2219 Rocket 2.1 00:05:08 10° NNW 00:10:51 86° ENE 00:11:13 79° SE
Cosmos 1782 Rocket 4.0 00:12:54 57° NNE 00:12:54 57° NNE 00:16:25 10° N
Lacrosse 4 Rocket 2.1 00:13:01 52° NNE 00:13:01 52° NNE 00:16:18 10° NNE
Cosmos 1354 Rocket 4.1 00:16:38 68° E 00:16:38 68° E 00:21:49 10° NNE
Cosmos 2322 Rocket 4.1 00:14:46 10° WNW 00:17:43 17° W 00:17:43 17° W
Cosmos 968 Rocket 3.5 00:19:13 69° WNW 00:19:13 69° WNW 00:24:20 10° NNE
SL-4 R/B 4.2 00:22:19 15° ENE 00:22:19 15° ENE 00:23:07 10° ENE
Cosmos 1908 Rocket 4.5 00:21:10 41° NW 00:21:10 41° NW 00:24:46 10° N
COSMOS 2428 2.6 00:23:14 10° NNW 00:28:58 78° WSW 00:29:11 77° SW
SL-16 R/B 3.5 00:28:37 24° ESE 00:31:51 43° ENE 00:37:42 10° N
CENTAUR R/B 4.2 00:27:59 10° W 00:33:39 32° NNW 00:40:12 10° NNE
Nadezhda 4 Rocket 3.9 00:27:48 10° N 00:34:10 85° E 00:35:18 62° SSE
Cosmos 2360 Rocket 3.7 00:29:51 10° NW 00:33:24 23° W 00:33:24 23° W
Cosmos 2034 Rocket 3.9 00:35:41 65° S 00:36:41 85° E 00:43:02 10° N
CZ-2D R/B 3.4 00:32:14 10° NNE 00:37:04 31° E 00:38:05 29° ESE
Okean 2 Rocket 3.4 00:41:46 64° ENE 00:41:46 64° ENE 00:45:50 10° NNE
Meteor 2-9 Rocket 4.2 00:41:29 61° WSW 00:41:56 63° WNW 00:47:34 10° N
GEOS 3 Rocket 3.6 00:37:04 10° NE 00:42:29 71° SE 00:42:46 70° SSE
Cosmos 1975 4.2 00:45:31 32° NW 00:45:31 32° NW 00:48:25 10° N
ADEOS II 4.3 00:42:23 10° NE 00:45:17 15° E 00:47:27 12° ESE
Cosmos 2297 Rocket 3.0 00:45:36 36° ESE 00:46:11 37° ESE 00:51:20 10° NE
Cosmos 1092 Rocket 4.1 00:40:01 10° N 00:46:16 67° E 00:48:01 47° SE
Cosmos 2219 3.8 00:45:50 42° ESE 00:46:20 43° ESE 00:51:37 10° NE
Cosmos 1975 Rocket 4.0 00:42:11 10° NNW 00:45:36 40° WNW 00:45:36 40° WNW
Cosmos 1980 3.9 00:42:21 10° NNW 00:48:01 66° ENE 00:49:51 42° SE
Sich 1 Rocket 3.9 00:48:43 59° NW 00:48:43 59° NW 00:52:35 10° N
PSLV R/B 4.4 00:44:02 10° N 00:48:26 46° WNW 00:48:26 46° WNW
Cosmos 2333 Rocket 2.7 00:43:08 10° NW 00:48:11 45° W 00:48:11 45° W
Cosmos 1777 Rocket 4.4 00:49:00 50° ESE 00:49:20 51° ESE 00:54:28 10° NNE
Helios 1B rocket 3.0 00:45:26 10° N 00:48:49 51° NNW 00:48:49 51° NNW
Meteor 1-29 4.4 00:49:58 10° N 00:52:12 38° N 00:52:12 38° N
Cosmos 44 Rocket 3.3 00:50:27 10° NW 00:55:08 74° W 00:55:08 74° W
Cosmos 1503 Rocket 4.5 00:56:39 48° W 00:57:21 51° WNW 01:02:37 10° NNE
Cosmos 1300 Rocket 3.6 00:57:53 72° N 00:57:53 72° N 01:01:47 10° N
Cosmos 2237 Rocket 2.3 00:52:25 10° NNW 00:58:06 73° ENE 00:59:51 45° SE
DELTA 2 DEB (DPAF) 4.2 01:00:27 68° E 01:00:38 69° ENE 01:05:04 10° N
Okean 1 Rocket 4.1 01:01:02 35° E 01:01:19 35° E 01:05:17 10° NNE
CZ-4C R/B 4.2 01:04:19 40° NE 01:04:19 40° NE 01:07:16 10° N
Spot 1 4.0 01:06:48 74° NNW 01:06:48 74° NNW 01:10:33 10° NNW
Cosmos 2151 Rocket 3.5 01:12:29 80° NW 01:12:29 80° NW 01:16:47 10° N
Meteor 1-12 Rocket 4.3 01:11:28 57° SW 01:12:38 74° WNW 01:18:40 10° N
Timation 2 Rocket 3.9 01:14:34 54° SW 01:16:05 82° WNW 01:22:10 10° NNE
Cosmos 1707 4.0 01:14:32 10° NNW 01:17:05 32° NW 01:17:05 32° NW
In-Cosmos 22 4.1 01:12:47 10° NNW 01:18:24 72° W 01:19:15 61° SSW
Meteor 1-15 Rocket 4.3 01:22:53 50° SSE 01:24:22 74° E 01:29:59 10° NNE
Cosmos 1805 3.8 01:24:25 50° E 01:24:26 50° E 01:28:13 10° NNE
SJ 16-02 2.7 01:25:10 28° ESE 01:25:59 30° E 01:29:50 10° NE
DNEPR-1 R/B 4.3 01:21:16 10° NW 01:27:12 67° NE 01:31:05 16° SE
ERBS 3.6 01:24:05 10° NW 01:27:13 39° NNE 01:30:20 10° ESE
Meteor 2-13 Rocket 4.4 01:26:35 10° NNW 01:32:37 64° W 01:34:10 48° SSW
Cosmos 2227 Rocket 2.2 01:33:34 50° S 01:35:03 75° ESE 01:40:44 10° NNE
Cosmos 1538 Rocket 3.9 01:29:57 10° NNW 01:35:05 67° WSW 01:35:51 58° SSW
Cosmos 1025 Rocket 4.1 01:32:56 10° NNW 01:36:08 32° WNW 01:36:08 32° WNW
MOZ.5/SAFIR/RUBIN 5/SL-8 4.1 01:36:59 48° W 01:36:59 48° W 01:41:36 10° NNW
Resurs 1-4 Rocket 2.0 01:32:46 10° NNE 01:38:05 84° WNW 01:39:24 52° SSW
Cosmos 1674 2.8 01:36:31 10° NNW 01:39:47 63° NW 01:39:47 63° NW
Cosmos 1733 3.5 01:42:54 55° ESE 01:43:13 58° E 01:47:00 10° NNE
NOSS 0 Rocket 4.4 01:38:29 10° NW 01:44:11 38° WSW 01:44:40 38° WSW
ATLAS 3B R/B 4.3 01:41:22 10° W 01:46:51 27° NNW 01:52:26 10° NNE
Cosmos 2279 Rocket 3.9 01:44:46 38° S 01:47:21 83° E 01:53:35 10° N
Cosmos 1461 4.4 01:47:03 26° SE 01:47:57 28° ESE 01:51:46 10° NE
USA 215 3.4 01:42:20 10° ENE 01:48:51 62° SE 01:51:29 37° SSW
Cosmos 2026 Rocket 4.1 01:43:22 10° NNW 01:49:17 57° W 01:51:08 41° SW
COBE Rocket 3.9 01:47:34 36° SSE 01:49:27 74° ENE 01:54:06 10° N
Lacrosse 4 Rocket 4.0 01:49:20 10° WNW 01:51:27 13° NW 01:53:33 10° N
Cosmos 1634 Rocket 4.2 01:50:26 40° SW 01:52:33 59° WNW 01:58:44 10° N
Cosmos 2219 Rocket 4.1 01:50:51 10° WNW 01:52:54 15° W 01:52:54 15° W
SL-24 R/B 4.4 01:53:41 37° SSE 01:55:36 80° E 02:00:37 10° N
Cosmos 2082 3.9 01:53:29 37° S 01:55:38 63° ESE 02:01:12 10° NNE
Cosmos 2344 4.4 01:46:06 10° NW 01:55:45 68° WSW 02:09:12 10° SSE
SL-4 R/B 1.8 01:58:02 25° NW 01:59:53 66° NNE 02:03:16 10° ESE
Cosmos 2112 Rocket 4.4 01:55:24 10° NNW 02:00:36 62° ENE 02:05:45 10° SSE
Meteor 1-24 Rocket 3.6 02:00:12 10° N 02:05:44 89° E 02:08:55 25° S
SL-16 R/B 2.1 02:01:00 10° NNW 02:06:45 88° WSW 02:12:26 10° SSE
CBERS-1 4.0 02:01:46 10° NNE 02:06:56 81° ESE 02:09:09 35° S
Meteor 2-5 Rocket 3.7 02:03:49 10° NNW 02:09:26 66° W 02:11:58 32° SSW
H-2A R/B 4.4 02:11:10 10° ESE 02:14:21 22° ENE 02:17:31 10° NNE
ARIANE 5 R/B 3.4 02:09:19 10° NNE 02:14:22 46° E 02:18:03 18° SSE
Cosmos 1898 Rocket 3.9 02:11:41 27° S 02:14:24 56° ESE 02:19:31 10° NNE
SL-16 R/B 3.2 02:13:42 31° SW 02:15:30 37° W 02:21:17 10° NNW
NPP 4.0 02:11:03 10° N 02:16:14 50° WNW 02:18:22 32° WSW
IDEFIX/ARIANE 42P 4.0 02:12:30 10° NNE 02:17:10 33° E 02:21:50 10° SSE
CZ-2D R/B 2.8 02:12:04 10° N 02:17:13 43° WNW 02:19:24 29° WSW
Cosmos 1680 Rocket 3.4 02:13:10 10° NNW 02:18:26 83° WSW 02:22:58 14° SSE
NOSS 3-1 (C) 3.8 02:17:24 26° S 02:20:15 49° ESE 02:26:12 10° NE
USA 267 3.5 02:14:53 10° ESE 02:21:24 74° NNE 02:27:57 10° NW
Cosmos 1544 Rocket 4.2 02:20:01 22° SSE 02:22:43 54° E 02:27:06 10° NNE
AQUA 4.3 02:18:11 10° N 02:22:45 47° WNW 02:24:26 33° WSW
Cosmos 1607 3.9 02:19:01 10° NW 02:25:27 70° WSW 02:31:52 10° SSE
ADEOS II 2.0 02:20:20 10° NNE 02:25:37 80° WNW 02:28:23 29° SSW
Cosmos 990 Rocket 4.0 02:23:20 29° S 02:26:03 76° ESE 02:31:15 10° NNE
Cosmos 1766 4.0 02:26:32 33° W 02:27:10 35° WNW 02:30:47 10° N
Cosmos 2263 Rocket 3.7 02:23:54 10° SSE 02:28:34 30° ESE 02:33:20 10° NE
IRS-1D 3.6 02:24:26 10° N 02:29:25 63° WNW 02:31:54 30° SW
Meteor 1-22 Rocket 4.1 02:27:11 31° SSW 02:29:44 66° WNW 02:35:02 10° N
Cosmos 2297 Rocket 3.0 02:27:24 24° WSW 02:30:11 39° NW 02:35:30 10° NNE
Cosmos 2219 4.2 02:27:45 22° WSW 02:30:35 34° NW 02:35:42 10° NNE
Okean 1-7 Rocket 3.5 02:27:55 10° NNW 02:32:19 77° W 02:35:04 23° S
IRS-1C 4.1 02:29:51 10° NNE 02:35:14 89° ESE 02:38:42 23° SSW
Cosmos 1626 2.7 02:34:54 10° NNW 02:38:22 37° W 02:38:57 34° WSW
Meteor 1-28 Rocket 3.1 02:36:22 21° S 02:38:48 84° WSW 02:42:39 10° NNW
Cosmos 2266 Rocket 4.0 02:32:56 10° NNW 02:39:18 73° W 02:45:02 13° S
Okean 1 Rocket 4.5 02:38:14 21° W 02:39:19 23° WNW 02:42:49 10° NNW
Cosmos 1655 Rocket 4.1 02:34:01 10° NNW 02:40:07 55° W 02:44:28 19° SSW
Cosmos 2237 Rocket 3.6 02:37:46 10° WNW 02:41:29 18° W 02:41:37 18° W
CZ-4B R/B 4.0 02:38:09 10° N 02:42:38 41° WNW 02:44:51 25° WSW
Cosmos 1470 2.7 02:41:43 29° SSW 02:43:38 76° W 02:47:37 10° N
Cosmos 1603 4.4 02:40:33 10° NNW 02:46:15 57° ENE 02:51:51 10° SE
SL-08 R/B 3.4 02:43:56 14° S 02:48:09 64° WSW 02:53:06 10° NNW
USA 229 DEB 3.7 02:48:34 20° SSW 02:53:18 73° SE 03:00:10 10° NE
USA 229 3.7 02:48:40 19° SSW 02:53:24 72° SE 03:00:13 10° NE
Cosmos 2098 Rocket 3.7 02:49:39 10° NNW 02:54:18 53° W 02:59:34 12° SSW
OPS 8737 4.3 02:57:00 27° SW 02:58:48 74° NW 03:01:49 10° NE
ERBS 3.2 03:00:34 10° WNW 03:03:33 26° SW 03:06:11 10° S
Meteor 2-14 Rocket 4.4 02:58:03 10° N 03:04:09 89° WSW 03:10:13 10° S
NOSS 2-3 (C) 4.2 03:01:08 17° SSW 03:04:16 53° ESE 03:09:04 10° NE
NOSS 3-1 (A) 3.6 03:00:07 16° SSW 03:04:28 61° ESE 03:10:41 10° NE
SJ 16-02 2.5 03:02:10 19° WSW 03:04:31 30° WNW 03:08:27 10° N
CSL-04 DEB 4.2 03:05:44 10° SSE 03:09:39 84° WSW 03:13:36 10° NNW
MSX 4.1 03:07:34 10° NNE 03:13:20 71° ESE 03:19:05 10° S
Cosmos 1809 Rocket 4.5 03:07:21 10° NNW 03:13:22 63° W 03:19:22 10° S
Cosmos 1943 3.4 03:07:53 10° NNW 03:13:32 76° ENE 03:19:08 10° SSE
Cosmos 1455 Rocket 4.0 03:11:32 18° SW 03:14:05 32° WNW 03:18:07 10° N
Cosmos 1626 Rocket 3.6 03:10:23 10° NNW 03:14:39 59° W 03:18:53 10° S
Cosmos 1758 3.9 03:13:24 18° SW 03:16:00 40° WNW 03:19:50 10° N
Resurs 1-4 Rocket 4.1 03:14:22 10° NNW 03:17:06 14° NW 03:19:50 10° W
Spot 4 Rocket 4.1 03:12:47 10° N 03:17:57 72° WNW 03:23:00 10° SSW
Meteor 1-21 Rocket 4.1 03:12:53 10° NNW 03:18:27 75° W 03:23:57 10° S
Cosmos 2227 Rocket 3.8 03:15:24 10° W 03:19:44 23° NW 03:24:09 10° N
SeaSat 1 2.9 03:17:16 10° NE 03:22:10 60° ESE 03:27:02 10° SSW
Landsat 5 3.2 03:20:31 10° S 03:24:23 79° WSW 03:28:25 10° NNW
CZ-2C R/B 2.7 03:22:12 10° N 03:26:06 79° WNW 03:29:54 10° SSW
Cosmos 1461 3.8 03:23:26 14° WSW 03:26:53 41° NW 03:31:15 10° NNE
CZ-2D R/B 3.8 03:23:44 10° N 03:27:39 47° WNW 03:31:11 12° SW
Cosmos 2227 4.3 03:24:45 10° SSW 03:30:26 84° WNW 03:36:15 10° NNE
FALCON 9 DEB 3.2 03:27:06 10° WNW 03:30:32 57° SW 03:33:55 10° SE
USA 215 3.8 03:25:28 10° NE 03:31:48 54° NNW 03:38:08 10° W
ATLAS CENTAUR R/B 3.6 03:29:09 10° SSE 03:32:15 20° ESE 03:35:15 10° ENE
ATLAS 3B CENTAUR R/B 4.3 03:27:04 12° WSW 03:32:27 18° SSW 03:36:36 10° SSE
Cosmos 1758 Rocket 3.6 03:28:18 10° N 03:32:38 80° E 03:36:57 10° SSE
Cosmos 1340 Rocket 4.0 03:29:56 14° WSW 03:32:41 27° WNW 03:36:06 10° NNW
ERS-2 2.1 03:32:04 10° S 03:35:40 63° WSW 03:39:18 10° NNW
Cosmos 724 4.4 03:30:28 10° NW 03:36:22 58° WSW 03:42:19 10° SSE
Cosmos 2228 3.8 03:32:37 10° S 03:36:52 56° E 03:41:11 10° NNE
Cosmos 1953 2.8 03:35:05 10° SSW 03:38:55 43° WNW 03:42:49 10° N
SL-4 R/B 2.6 03:36:23 10° W 03:39:11 24° SW 03:41:59 10° SSE
Cosmos 1726 3.0 03:38:38 11° SW 03:41:52 33° WNW 03:45:15 10° N
Cosmos 1908 3.2 03:40:07 10° S 03:44:01 81° W 03:47:57 10° N
Meteor 1-16 Rocket 4.1 03:39:49 10° SSW 03:45:09 71° WNW 03:50:41 10° N
Cosmos 2285 Rocket 4.2 03:40:39 10° SSW 03:46:57 81° ESE 03:53:17 10° NNE
SL-16 R/B 3.8 03:47:10 10° WNW 03:49:59 14° W 03:52:46 10° SW
H-2A R/B 2.5 03:46:17 10° SSW 03:50:08 37° W 03:53:58 10° NNW
Cosmos 2150 Rocket 4.0 03:46:36 10° SSW 03:51:46 89° ESE 03:57:01 10° NNE
Cosmos 1937 Rocket 4.5 03:47:22 10° WSW 03:52:09 33° WNW 03:56:59 10° N
ARIANE 5 R/B 3.7 03:48:53 10° N 03:53:14 27° WNW 03:57:34 10° WSW
Cosmos 1825 Rocket 3.5 03:50:53 10° NNW 03:55:13 75° W 03:59:32 10° S
IDEFIX/ARIANE 42P 3.3 03:52:03 10° N 03:56:47 36° WNW 04:01:30 10° SW
CZ-4C R/B 4.1 03:56:56 10° SSW 03:59:33 23° W 04:02:15 10° NW
Cosmos 1328 3.9 03:55:42 10° NNW 03:59:37 55° W 04:03:31 10° S
ADEOS 4.2 03:54:46 10° NNE 03:59:57 61° ESE 04:05:07 10° S
Cosmos 1953 Rocket 3.7 03:56:46 10° N 04:01:17 85° E 04:05:46 10° S
